Погода в Ча-Аме

Таиланд     12°47′43″N   99°54′51″E
темп.,
°C
ветер,
м/с
пор.,
м/с
влажн.,
%
обл.,
%
осадки,
мм/ч
давл.,
гПа
погр.,
м
12 мая, ср
ср1201:00+29ююз467426 0.0 1007366
04:00+28ююз45745 0.0 1006288
07:00+28зюз227052 0.0 1008213
10:00+32юв32585 0.0 1008670
13:00+32юв65616 0.0 10061008
16:00+31ююв76635 0.0 1004653
19:00+30ююв68686 0.0 1005616
22:00+30ю79694 0.0 1006487
13 мая, чт
чт1301:00+29ююз56725 0.0 1005294
04:00+28ююз45755 0.0 1005292
07:00+29ююз33721 0.0 1006270
10:00+32ююв33615 0.0 1008779
13:00+32юв65639 0.0 1006918
16:00+32ююв666194 0.0 1004640
19:00+30ююв566966 0.3 1004383
22:00+29ю5773100 0.0 1006409
14 мая, пт
пт1401:00+28ююз457663 0.0 1005321
04:00+28ююз337823 0.0 1004185
07:00+28юз22755 0.0 1005210
10:00+31юв22625 0.0 1007695
13:00+32юв65624 0.0 10051015
16:00+32ююв776511 0.0 1003690
19:00+30ююв68745 0.2 1004500
22:00+30ю69765 0.0 1005453
15 мая, сб
сб1501:00+29ююз56775 0.0 1005354
04:00+28ююз34785 0.0 1004238
07:00+29ююз33749 0.0 1006250
10:00+32юв326292 0.0 1007760
13:00+32юв656418 0.0 1005941
16:00+32ююв77655 0.0 1003661
19:00+30ююв68745 0.9 1004472
22:00+30ю57765 0.0 1005412
16 мая, вс
вс1601:00+29ю56795 0.0 1005366
04:00+28ююз34795 0.0 1004289
07:00+29ююз34765 0.0 1006260
10:00+32юв226196 0.3 1007696
13:00+32юв6564100 0.4 1005815
16:00+32юв766612 0.0 1004796
19:00+30ю577339 2.8 1005437
22:00+30ююз567638 0.1 1007383